Time,TemperatureF,DewpointF,PressureIn,WindDirection,WindDirectionDegrees,WindSpeedMPH,WindSpeedGustMPH,Humidity,HourlyPrecipIn,Conditions,Clouds,dailyrainin,SoftwareType,DateUTC
2013-08-08 00:00:00,73.5,70.7,29.91,WSW,237,0.0,0.0,91,0.00,,BKN037,0.00,VWS V14.01,2013-08-08 04:00:00,
2013-08-08 00:01:00,73.5,70.7,29.91,WSW,237,0.0,0.0,91,0.00,,BKN055,0.00,VWS V14.01,2013-08-08 04:01:00,
2013-08-08 00:06:00,73.5,70.7,29.91,WSW,237,0.0,0.0,91,0.00,,BKN055,0.00,VWS V14.01,2013-08-08 04:06:00,
2013-08-08 00:11:00,73.3,70.5,29.91,WSW,237,0.0,0.0,91,0.00,,BKN055,0.00,VWS V14.01,2013-08-08 04:11:00,
2013-08-08 00:15:00,73.3,70.5,29.91,WSW,237,0.0,0.0,91,0.00,,BKN037,0.00,VWS V14.01,2013-08-08 04:15:00,
2013-08-08 00:16:00,73.3,70.5,29.91,WSW,237,0.0,0.0,91,0.00,,BKN055,0.00,VWS V14.01,2013-08-08 04:16:00,
2013-08-08 00:21:00,73.2,70.7,29.91,WSW,237,0.0,0.0,92,0.00,,BKN055,0.00,VWS V14.01,2013-08-08 04:21:00,
2013-08-08 00:26:00,73.2,70.7,29.91,WSW,237,0.0,0.0,92,0.00,,BKN055,0.00,VWS V14.01,2013-08-08 04:26:00,
2013-08-08 00:30:00,73.2,70.7,29.91,SW,236,0.0,0.0,92,0.00,,BKN037,0.00,VWS V14.01,2013-08-08 04:30:00,
2013-08-08 00:31:00,73.2,70.7,29.91,SW,236,0.0,0.0,92,0.00,,BKN055,0.00,VWS V14.01,2013-08-08 04:31:00,
2013-08-08 00:36:00,73.2,70.7,29.91,SW,236,0.0,0.0,92,0.00,,BKN055,0.00,VWS V14.01,2013-08-08 04:36:00,
2013-08-08 00:41:00,73.2,70.7,29.91,SW,236,0.0,0.0,92,0.00,,BKN055,0.00,VWS V14.01,2013-08-08 04:41:00,
2013-08-08 00:45:00,73.0,70.9,29.90,SW,220,0.0,0.0,93,0.00,,BKN037,0.00,VWS V14.01,2013-08-08 04:45:00,
2013-08-08 00:46:00,73.0,70.9,29.90,SW,220,0.0,1.0,93,0.00,,BKN055,0.00,VWS V14.01,2013-08-08 04:46:00,
2013-08-08 00:51:00,73.2,71.1,29.90,SSE,151,0.0,4.0,93,0.00,,BKN055,0.00,VWS V14.01,2013-08-08 04:51:00,
2013-08-08 00:56:00,73.0,70.9,29.90,SSE,151,0.0,4.0,93,0.00,,BKN055,0.00,VWS V14.01,2013-08-08 04:56:00,
2013-08-08 01:00:00,73.0,70.9,29.91,SSE,154,0.0,3.0,93,0.00,,BKN037,0.00,VWS V14.01,2013-08-08 05:00:00,
2013-08-08 01:01:00,73.2,71.1,29.91,SSE,154,0.0,3.0,93,0.00,,CLR,0.00,VWS V14.01,2013-08-08 05:01:00,
2013-08-08 01:06:00,73.2,71.1,29.91,SSE,160,0.0,3.0,93,0.00,,CLR,0.00,VWS V14.01,2013-08-08 05:06:00,
2013-08-08 01:11:00,73.2,71.1,29.91,SSE,161,0.0,2.0,93,0.00,,CLR,0.00,VWS V14.01,2013-08-08 05:11:00,
2013-08-08 01:15:00,73.0,70.9,29.90,SE,144,2.0,3.0,93,0.00,,BKN037,0.00,VWS V14.01,2013-08-08 05:15:00,
2013-08-08 01:16:00,73.0,70.9,29.90,SE,144,0.0,3.0,93,0.00,,CLR,0.00,VWS V14.01,2013-08-08 05:16:00,
2013-08-08 01:21:00,73.0,70.9,29.90,SE,144,0.0,3.0,93,0.00,,CLR,0.00,VWS V14.01,2013-08-08 05:21:00,
2013-08-08 01:26:00,73.0,70.9,29.90,SE,144,0.0,0.0,93,0.00,,CLR,0.00,VWS V14.01,2013-08-08 05:26:00,
2013-08-08 01:30:00,72.8,70.7,29.90,SE,144,0.0,0.0,93,0.00,,BKN037,0.00,VWS V14.01,2013-08-08 05:30:00,
2013-08-08 01:31:00,72.8,70.7,29.90,SE,144,0.0,0.0,93,0.00,,CLR,0.00,VWS V14.01,2013-08-08 05:31:00,
2013-08-08 01:36:00,72.8,70.7,29.90,SE,144,0.0,0.0,93,0.00,,CLR,0.00,VWS V14.01,2013-08-08 05:36:00,
2013-08-08 01:41:00,72.7,70.6,29.90,SE,144,0.0,0.0,93,0.00,,CLR,0.00,VWS V14.01,2013-08-08 05:41:00,
2013-08-08 01:45:00,72.7,70.6,29.90,SE,144,0.0,0.0,93,0.00,,BKN037,0.00,VWS V14.01,2013-08-08 05:45:00,
2013-08-08 01:46:00,72.7,70.6,29.90,SE,144,0.0,0.0,93,0.00,,CLR,0.00,VWS V14.01,2013-08-08 05:46:00,
2013-08-08 01:51:00,72.7,70.6,29.90,SE,144,0.0,0.0,93,0.00,,CLR,0.00,VWS V14.01,2013-08-08 05:51:00,
2013-08-08 01:56:00,72.5,70.4,29.90,SE,144,0.0,0.0,93,0.00,,CLR,0.00,VWS V14.01,2013-08-08 05:56:00,
2013-08-08 02:00:00,72.5,70.4,29.90,SE,144,0.0,0.0,93,0.00,,BKN037,0.00,VWS V14.01,2013-08-08 06:00:00,
2013-08-08 02:01:00,72.5,70.4,29.90,SE,144,0.0,0.0,93,0.00,,CLR,0.00,VWS V14.01,2013-08-08 06:01:00,
2013-08-08 02:07:00,72.5,70.4,29.90,SE,144,0.0,0.0,93,0.00,,CLR,0.00,VWS V14.01,2013-08-08 06:07:00,
2013-08-08 02:12:00,72.3,70.2,29.90,SE,144,0.0,0.0,93,0.00,,CLR,0.00,VWS V14.01,2013-08-08 06:12:00,
2013-08-08 02:15:00,72.3,70.2,29.90,SE,144,0.0,0.0,93,0.00,,BKN037,0.00,VWS V14.01,2013-08-08 06:15:00,
2013-08-08 02:17:00,72.3,70.2,29.90,SE,144,0.0,0.0,93,0.00,,CLR,0.00,VWS V14.01,2013-08-08 06:17:00,
2013-08-08 02:22:00,72.1,70.3,29.90,SE,144,0.0,0.0,94,0.00,,CLR,0.00,VWS V14.01,2013-08-08 06:22:00,
2013-08-08 02:27:00,72.1,70.3,29.90,SE,144,0.0,0.0,94,0.00,,CLR,0.00,VWS V14.01,2013-08-08 06:27:00,
2013-08-08 02:30:00,72.1,70.3,29.90,SE,144,0.0,0.0,94,0.00,,BKN037,0.00,VWS V14.01,2013-08-08 06:30:00,
2013-08-08 02:32:00,72.1,70.3,29.90,SE,144,0.0,0.0,94,0.00,,CLR,0.00,VWS V14.01,2013-08-08 06:32:00,
2013-08-08 02:37:00,72.1,70.3,29.90,SE,144,0.0,0.0,94,0.00,,CLR,0.00,VWS V14.01,2013-08-08 06:37:00,
2013-08-08 02:42:00,72.0,70.2,29.90,SE,144,0.0,0.0,94,0.00,,CLR,0.00,VWS V14.01,2013-08-08 06:42:00,
2013-08-08 02:45:00,72.0,70.2,29.89,SE,144,0.0,0.0,94,0.00,,BKN037,0.00,VWS V14.01,2013-08-08 06:45:00,
2013-08-08 02:47:00,71.8,70.0,29.89,SE,144,0.0,0.0,94,0.00,,CLR,0.00,VWS V14.01,2013-08-08 06:47:00,
2013-08-08 02:52:00,71.8,70.0,29.89,SE,144,0.0,0.0,94,0.00,,CLR,0.00,VWS V14.01,2013-08-08 06:52:00,
2013-08-08 02:57:00,71.6,69.8,29.89,SE,144,0.0,0.0,94,0.00,,CLR,0.00,VWS V14.01,2013-08-08 06:57:00,
2013-08-08 03:00:00,71.6,69.8,29.90,SE,144,0.0,0.0,94,0.00,,BKN037,0.00,VWS V14.01,2013-08-08 07:00:00,
2013-08-08 03:02:00,71.5,69.7,29.90,SE,144,0.0,0.0,94,0.00,,CLR,0.00,VWS V14.01,2013-08-08 07:02:00,
2013-08-08 03:07:00,71.5,69.7,29.90,SE,144,0.0,0.0,94,0.00,,CLR,0.00,VWS V14.01,2013-08-08 07:07:00,
2013-08-08 03:12:00,71.5,69.7,29.90,SE,144,0.0,0.0,94,0.00,,CLR,0.00,VWS V14.01,2013-08-08 07:12:00,
2013-08-08 03:15:00,71.5,69.7,29.90,SE,144,0.0,0.0,94,0.00,,BKN037,0.00,VWS V14.01,2013-08-08 07:15:00,
2013-08-08 03:17:00,71.5,69.7,29.90,SE,144,0.0,0.0,94,0.00,,CLR,0.00,VWS V14.01,2013-08-08 07:17:00,
2013-08-08 03:22:00,71.3,69.5,29.90,SE,144,0.0,0.0,94,0.00,,CLR,0.00,VWS V14.01,2013-08-08 07:22:00,
2013-08-08 03:27:00,71.1,69.3,29.90,SE,144,0.0,0.0,94,0.00,,CLR,0.00,VWS V14.01,2013-08-08 07:27:00,
2013-08-08 03:30:00,71.1,69.3,29.90,SE,144,0.0,0.0,94,0.00,,BKN037,0.00,VWS V14.01,2013-08-08 07:30:00,
2013-08-08 03:32:00,70.9,69.1,29.90,SE,144,0.0,0.0,94,0.00,,CLR,0.00,VWS V14.01,2013-08-08 07:32:00,
2013-08-08 03:37:00,70.9,69.1,29.90,SE,144,0.0,0.0,94,0.00,,CLR,0.00,VWS V14.01,2013-08-08 07:37:00,
2013-08-08 03:42:00,70.8,69.0,29.90,SE,144,0.0,0.0,94,0.00,,CLR,0.00,VWS V14.01,2013-08-08 07:42:00,
2013-08-08 03:45:00,70.8,69.0,29.89,SE,144,0.0,0.0,94,0.00,,BKN037,0.00,VWS V14.01,2013-08-08 07:45:00,
2013-08-08 03:47:00,70.8,69.0,29.89,SE,144,0.0,0.0,94,0.00,,CLR,0.00,VWS V14.01,2013-08-08 07:47:00,
2013-08-08 03:52:00,70.6,68.8,29.89,SE,144,0.0,0.0,94,0.00,,CLR,0.00,VWS V14.01,2013-08-08 07:52:00,
2013-08-08 03:57:00,70.4,68.6,29.89,SE,144,0.0,0.0,94,0.00,,CLR,0.00,VWS V14.01,2013-08-08 07:57:00,
2013-08-08 04:00:00,70.4,68.6,29.90,SE,144,0.0,0.0,94,0.00,,BKN037,0.00,VWS V14.01,2013-08-08 08:00:00,
2013-08-08 04:02:00,70.4,68.6,29.90,SE,144,0.0,0.0,94,0.00,,SCT021,0.00,VWS V14.01,2013-08-08 08:02:00,
2013-08-08 04:07:00,70.4,68.9,29.90,SE,144,0.0,0.0,95,0.00,,SCT021,0.00,VWS V14.01,2013-08-08 08:07:00,
2013-08-08 04:12:00,70.4,68.9,29.90,SE,144,0.0,0.0,95,0.00,,SCT021,0.00,VWS V14.01,2013-08-08 08:12:00,
2013-08-08 04:15:00,70.4,68.9,29.90,SE,144,0.0,0.0,95,0.00,,BKN037,0.00,VWS V14.01,2013-08-08 08:15:00,
2013-08-08 04:17:00,70.4,68.9,29.90,SE,144,0.0,0.0,95,0.00,,BKN021,0.00,VWS V14.01,2013-08-08 08:17:00,
2013-08-08 04:22:00,70.4,68.9,29.90,SE,144,0.0,0.0,95,0.00,,BKN021,0.00,VWS V14.01,2013-08-08 08:22:00,
2013-08-08 04:27:00,70.3,68.8,29.90,SE,144,0.0,0.0,95,0.00,,BKN021,0.00,VWS V14.01,2013-08-08 08:27:00,
2013-08-08 04:30:00,70.3,68.8,29.90,SE,144,0.0,0.0,95,0.00,,BKN037,0.00,VWS V14.01,2013-08-08 08:30:00,
2013-08-08 04:32:00,70.3,68.8,29.90,SE,144,0.0,0.0,95,0.00,,BKN021,0.00,VWS V14.01,2013-08-08 08:32:00,
2013-08-08 04:37:00,70.4,68.9,29.90,SE,144,0.0,0.0,95,0.00,,BKN021,0.00,VWS V14.01,2013-08-08 08:37:00,
2013-08-08 04:42:00,70.4,68.9,29.90,SE,144,0.0,0.0,95,0.00,,BKN021,0.00,VWS V14.01,2013-08-08 08:42:00,
2013-08-08 04:45:00,70.6,69.1,29.90,SE,144,0.0,0.0,95,0.00,,BKN037,0.00,VWS V14.01,2013-08-08 08:45:00,
2013-08-08 04:47:00,70.6,69.1,29.90,SE,144,0.0,0.0,95,0.00,,BKN021,0.00,VWS V14.01,2013-08-08 08:47:00,
2013-08-08 04:52:00,70.8,69.3,29.90,SE,144,0.0,0.0,95,0.00,,BKN021,0.00,VWS V14.01,2013-08-08 08:52:00,
2013-08-08 04:57:00,70.8,69.3,29.90,SE,144,0.0,0.0,95,0.00,,BKN021,0.00,VWS V14.01,2013-08-08 08:57:00,
2013-08-08 05:00:00,70.8,69.3,29.90,SE,144,0.0,0.0,95,0.00,,BKN037,0.00,VWS V14.01,2013-08-08 09:00:00,
2013-08-08 05:02:00,70.8,69.3,29.90,SE,144,0.0,0.0,95,0.00,,BKN012,0.00,VWS V14.01,2013-08-08 09:02:00,
2013-08-08 05:07:00,70.9,69.4,29.90,SE,144,0.0,0.0,95,0.00,,BKN012,0.00,VWS V14.01,2013-08-08 09:07:00,
2013-08-08 05:12:00,71.1,69.6,29.90,SE,144,0.0,0.0,95,0.00,,BKN012,0.00,VWS V14.01,2013-08-08 09:12:00,
2013-08-08 05:15:00,71.1,69.6,29.90,SE,144,0.0,0.0,95,0.00,,BKN037,0.00,VWS V14.01,2013-08-08 09:15:00,
2013-08-08 05:17:00,71.1,69.6,29.90,SE,144,0.0,0.0,95,0.00,,BKN012,0.00,VWS V14.01,2013-08-08 09:17:00,
2013-08-08 05:22:00,71.3,69.8,29.90,SE,144,0.0,0.0,95,0.00,,BKN012,0.00,VWS V14.01,2013-08-08 09:22:00,
2013-08-08 05:27:00,71.3,69.8,29.90,SE,144,0.0,0.0,95,0.00,,BKN012,0.00,VWS V14.01,2013-08-08 09:27:00,
2013-08-08 05:30:00,71.3,69.8,29.89,SE,144,0.0,0.0,95,0.00,,BKN037,0.00,VWS V14.01,2013-08-08 09:30:00,
2013-08-08 05:32:00,71.5,70.0,29.89,SE,144,0.0,0.0,95,0.00,,BKN012,0.00,VWS V14.01,2013-08-08 09:32:00,
2013-08-08 05:37:00,71.5,70.0,29.89,SE,144,0.0,0.0,95,0.00,,BKN012,0.00,VWS V14.01,2013-08-08 09:37:00,
2013-08-08 05:42:00,71.6,70.1,29.89,SE,144,0.0,0.0,95,0.00,,BKN012,0.00,VWS V14.01,2013-08-08 09:42:00,
2013-08-08 05:45:00,71.6,70.1,29.89,SE,144,0.0,0.0,95,0.00,,BKN037,0.00,VWS V14.01,2013-08-08 09:45:00,
2013-08-08 05:47:00,71.6,70.1,29.89,SE,144,0.0,0.0,95,0.00,,BKN012,0.00,VWS V14.01,2013-08-08 09:47:00,
2013-08-08 05:52:00,71.6,70.1,29.89,SE,144,0.0,0.0,95,0.00,,BKN012,0.00,VWS V14.01,2013-08-08 09:52:00,
2013-08-08 05:57:00,71.8,70.3,29.89,SE,144,0.0,0.0,95,0.00,,BKN012,0.00,VWS V14.01,2013-08-08 09:57:00,
2013-08-08 06:00:00,71.8,70.3,29.89,SE,144,0.0,0.0,95,0.00,,BKN037,0.00,VWS V14.01,2013-08-08 10:00:00,
2013-08-08 06:02:00,71.8,70.3,29.89,SE,144,0.0,0.0,95,0.00,,OVC010,0.00,VWS V14.01,2013-08-08 10:02:00,
2013-08-08 06:07:00,71.8,70.3,29.89,SE,144,0.0,0.0,95,0.00,,OVC010,0.00,VWS V14.01,2013-08-08 10:07:00,
2013-08-08 06:12:00,71.8,70.3,29.89,SE,144,0.0,0.0,95,0.00,,OVC010,0.00,VWS V14.01,2013-08-08 10:12:00,
2013-08-08 06:15:00,71.8,70.3,29.90,SE,144,0.0,0.0,95,0.00,,BKN037,0.00,VWS V14.01,2013-08-08 10:15:00,
2013-08-08 06:17:00,72.0,70.5,29.90,SE,144,0.0,0.0,95,0.00,,OVC008,0.00,VWS V14.01,2013-08-08 10:17:00,
2013-08-08 06:22:00,72.0,70.5,29.90,SE,144,0.0,0.0,95,0.00,,OVC008,0.00,VWS V14.01,2013-08-08 10:22:00,
2013-08-08 06:27:00,72.0,70.5,29.90,SE,144,0.0,0.0,95,0.00,,OVC008,0.00,VWS V14.01,2013-08-08 10:27:00,
2013-08-08 06:30:00,72.0,70.5,29.90,SE,144,0.0,0.0,95,0.00,,BKN037,0.00,VWS V14.01,2013-08-08 10:30:00,
2013-08-08 06:32:00,72.0,70.5,29.90,SE,144,0.0,0.0,95,0.00,,OVC008,0.00,VWS V14.01,2013-08-08 10:32:00,
2013-08-08 06:37:00,72.0,70.5,29.90,SE,144,0.0,0.0,95,0.00,,OVC008,0.00,VWS V14.01,2013-08-08 10:37:00,
2013-08-08 06:42:00,72.0,70.5,29.90,SE,144,0.0,0.0,95,0.00,,OVC008,0.00,VWS V14.01,2013-08-08 10:42:00,
2013-08-08 06:45:00,72.0,70.5,29.90,SE,144,0.0,0.0,95,0.00,,BKN037,0.00,VWS V14.01,2013-08-08 10:45:00,
2013-08-08 06:47:00,72.0,70.5,29.90,SE,144,0.0,0.0,95,0.00,,BKN017,0.00,VWS V14.01,2013-08-08 10:47:00,
2013-08-08 06:52:00,72.0,70.5,29.90,SE,144,0.0,0.0,95,0.00,,BKN017,0.00,VWS V14.01,2013-08-08 10:52:00,
2013-08-08 06:57:00,72.1,70.6,29.90,SE,144,0.0,0.0,95,0.00,,BKN017,0.00,VWS V14.01,2013-08-08 10:57:00,
2013-08-08 07:00:00,72.1,70.6,29.90,SE,144,0.0,0.0,95,0.00,,BKN037,0.00,VWS V14.01,2013-08-08 11:00:00,
2013-08-08 07:02:00,72.1,70.6,29.90,SE,144,0.0,0.0,95,0.00,,,0.00,VWS V14.01,2013-08-08 11:02:00,
2013-08-08 07:07:00,72.1,70.6,29.90,SE,144,0.0,0.0,95,0.00,,,0.00,VWS V14.01,2013-08-08 11:07:00,
2013-08-08 07:12:00,72.3,70.8,29.90,SE,144,0.0,0.0,95,0.00,,,0.00,VWS V14.01,2013-08-08 11:12:00,
2013-08-08 07:15:00,72.3,70.8,29.90,SE,144,0.0,0.0,95,0.00,,BKN037,0.00,VWS V14.01,2013-08-08 11:15:00,
2013-08-08 07:17:00,72.3,70.8,29.90,SE,144,0.0,0.0,95,0.00,,,0.00,VWS V14.01,2013-08-08 11:17:00,
2013-08-08 07:22:00,72.3,70.8,29.90,SE,144,0.0,0.0,95,0.00,,,0.00,VWS V14.01,2013-08-08 11:22:00,
2013-08-08 07:27:00,72.3,70.8,29.90,SE,144,0.0,0.0,95,0.00,,,0.00,VWS V14.01,2013-08-08 11:27:00,
2013-08-08 07:30:00,72.3,70.8,29.91,SE,144,0.0,0.0,95,0.00,,BKN037,0.00,VWS V14.01,2013-08-08 11:30:00,
2013-08-08 07:32:00,72.3,70.8,29.91,SE,144,0.0,0.0,95,0.00,,,0.00,VWS V14.01,2013-08-08 11:32:00,
2013-08-08 07:37:00,72.5,71.0,29.91,SE,144,0.0,0.0,95,0.00,,,0.00,VWS V14.01,2013-08-08 11:37:00,
2013-08-08 07:42:00,72.7,71.2,29.91,SE,144,0.0,0.0,95,0.00,,,0.00,VWS V14.01,2013-08-08 11:42:00,
2013-08-08 07:45:00,72.7,71.2,29.90,SE,144,0.0,0.0,95,0.00,,BKN037,0.00,VWS V14.01,2013-08-08 11:45:00,
2013-08-08 07:47:00,72.7,71.2,29.90,SE,144,0.0,0.0,95,0.00,,,0.00,VWS V14.01,2013-08-08 11:47:00,
2013-08-08 07:52:00,72.7,71.2,29.90,SE,144,0.0,0.0,95,0.00,,,0.00,VWS V14.01,2013-08-08 11:52:00,
2013-08-08 07:57:00,72.8,71.3,29.90,SE,144,0.0,0.0,95,0.00,,,0.00,VWS V14.01,2013-08-08 11:57:00,
2013-08-08 08:00:00,73.0,71.5,29.91,SE,144,0.0,0.0,95,0.00,,BKN037,0.00,VWS V14.01,2013-08-08 12:00:00,
2013-08-08 08:02:00,73.2,71.7,29.91,SE,144,0.0,0.0,95,0.00,,,0.00,VWS V14.01,2013-08-08 12:02:00,
2013-08-08 08:07:00,73.3,71.8,29.91,SE,144,0.0,0.0,95,0.00,,,0.00,VWS V14.01,2013-08-08 12:07:00,
2013-08-08 08:12:00,73.5,72.0,29.91,SE,144,0.0,0.0,95,0.00,,,0.00,VWS V14.01,2013-08-08 12:12:00,
2013-08-08 08:15:00,73.7,72.2,29.91,SE,144,0.0,0.0,95,0.00,,BKN037,0.00,VWS V14.01,2013-08-08 12:15:00,
2013-08-08 08:17:00,73.9,72.4,29.91,SE,144,0.0,0.0,95,0.00,,,0.00,VWS V14.01,2013-08-08 12:17:00,
2013-08-08 08:22:00,74.0,72.5,29.91,SE,144,0.0,1.0,95,0.00,,,0.00,VWS V14.01,2013-08-08 12:22:00,
2013-08-08 08:27:00,74.4,72.6,29.91,SE,144,0.0,1.0,94,0.00,,,0.00,VWS V14.01,2013-08-08 12:27:00,
2013-08-08 08:30:00,74.4,72.2,29.91,SE,144,0.0,1.0,93,0.00,,BKN037,0.00,VWS V14.01,2013-08-08 12:30:00,
2013-08-08 08:32:00,74.6,72.4,29.91,SE,144,0.0,0.0,93,0.00,,SCT012,0.00,VWS V14.01,2013-08-08 12:32:00,
2013-08-08 08:37:00,74.7,72.6,29.91,SE,144,0.0,0.0,93,0.00,,SCT012,0.00,VWS V14.01,2013-08-08 12:37:00,
2013-08-08 08:42:00,75.3,72.8,29.91,SE,144,0.0,0.0,92,0.00,,SCT012,0.00,VWS V14.01,2013-08-08 12:42:00,
2013-08-08 08:45:00,75.3,72.5,29.91,SE,144,0.0,0.0,91,0.00,,BKN037,0.00,VWS V14.01,2013-08-08 12:45:00,
2013-08-08 08:47:00,75.4,72.6,29.91,SE,144,0.0,0.0,91,0.00,,SCT012,0.00,VWS V14.01,2013-08-08 12:47:00,
2013-08-08 08:52:00,75.6,72.5,29.91,SE,144,0.0,0.0,90,0.00,,SCT012,0.00,VWS V14.01,2013-08-08 12:52:00,
2013-08-08 08:57:00,75.6,72.5,29.91,SSE,150,0.0,1.0,90,0.00,,SCT012,0.00,VWS V14.01,2013-08-08 12:57:00,
2013-08-08 09:00:00,75.4,72.3,29.91,SSE,150,0.0,1.0,90,0.00,,BKN037,0.00,VWS V14.01,2013-08-08 13:00:00,
2013-08-08 09:02:00,75.4,72.3,29.91,South,175,0.0,5.0,90,0.00,,BKN011,0.00,VWS V14.01,2013-08-08 13:02:00,
2013-08-08 09:07:00,75.3,72.2,29.91,South,178,0.0,5.0,90,0.00,,BKN011,0.00,VWS V14.01,2013-08-08 13:07:00,
2013-08-08 09:12:00,75.1,72.0,29.91,SSW,193,0.0,2.0,90,0.00,,BKN011,0.00,VWS V14.01,2013-08-08 13:12:00,
2013-08-08 09:15:00,74.9,71.8,29.92,SSW,192,0.0,2.0,90,0.00,,BKN037,0.00,VWS V14.01,2013-08-08 13:15:00,
2013-08-08 09:17:00,74.9,71.8,29.92,South,188,0.0,2.0,90,0.00,,BKN011,0.00,VWS V14.01,2013-08-08 13:17:00,
2013-08-08 09:22:00,74.9,71.8,29.92,South,186,0.0,2.0,90,0.00,,BKN011,0.00,VWS V14.01,2013-08-08 13:22:00,
2013-08-08 09:27:00,74.7,71.6,29.92,South,188,0.0,2.0,90,0.00,,BKN011,0.00,VWS V14.01,2013-08-08 13:27:00,
2013-08-08 09:30:00,74.7,71.6,29.92,South,188,0.0,2.0,90,0.00,,BKN037,0.00,VWS V14.01,2013-08-08 13:30:00,
2013-08-08 09:32:00,74.7,71.6,29.92,South,188,2.0,2.0,90,0.00,,,0.00,VWS V14.01,2013-08-08 13:32:00,
2013-08-08 09:37:00,74.7,71.6,29.92,South,188,0.0,2.0,90,0.00,,,0.00,VWS V14.01,2013-08-08 13:37:00,
2013-08-08 09:42:00,74.7,71.6,29.92,South,186,0.0,0.0,90,0.00,,,0.00,VWS V14.01,2013-08-08 13:42:00,
2013-08-08 09:45:00,74.9,72.1,29.92,South,186,0.0,0.0,91,0.00,,BKN037,0.00,VWS V14.01,2013-08-08 13:45:00,
2013-08-08 09:47:00,74.9,71.8,29.92,South,186,0.0,0.0,90,0.00,,,0.00,VWS V14.01,2013-08-08 13:47:00,
2013-08-08 09:52:00,75.3,72.2,29.92,South,186,0.0,0.0,90,0.00,,,0.00,VWS V14.01,2013-08-08 13:52:00,
2013-08-08 09:57:00,75.3,71.8,29.92,South,186,0.0,1.0,89,0.00,,,0.00,VWS V14.01,2013-08-08 13:57:00,
2013-08-08 10:00:00,75.4,71.9,29.92,South,186,0.0,1.0,89,0.00,,BKN037,0.00,VWS V14.01,2013-08-08 14:00:00,
2013-08-08 10:02:00,75.8,72.0,29.92,South,186,0.0,0.0,88,0.00,,,0.00,VWS V14.01,2013-08-08 14:02:00,
2013-08-08 10:07:00,75.8,71.7,29.92,SSW,213,0.0,2.0,87,0.00,,,0.00,VWS V14.01,2013-08-08 14:07:00,
2013-08-08 10:13:00,76.0,71.9,29.92,SSW,206,0.0,2.0,87,0.00,,,0.00,VWS V14.01,2013-08-08 14:13:00,
2013-08-08 10:15:00,76.1,71.9,29.93,SSW,198,0.0,1.0,87,0.00,,BKN037,0.00,VWS V14.01,2013-08-08 14:15:00,
2013-08-08 10:18:00,76.3,72.2,29.93,SSW,198,0.0,0.0,87,0.00,,,0.00,VWS V14.01,2013-08-08 14:18:00,
2013-08-08 10:23:00,76.5,72.3,29.93,SSW,198,0.0,0.0,87,0.00,,,0.00,VWS V14.01,2013-08-08 14:23:00,
2013-08-08 10:28:00,76.8,72.3,29.93,SSW,198,0.0,0.0,86,0.00,,,0.00,VWS V14.01,2013-08-08 14:28:00,
2013-08-08 10:30:00,76.8,71.9,29.93,SSW,198,0.0,0.0,85,0.00,,BKN037,0.00,VWS V14.01,2013-08-08 14:30:00,
2013-08-08 10:33:00,76.8,71.9,29.93,SSW,196,0.0,0.0,85,0.00,,,0.00,VWS V14.01,2013-08-08 14:33:00,
2013-08-08 10:38:00,77.0,72.2,29.93,SSW,196,0.0,0.0,85,0.00,,,0.00,VWS V14.01,2013-08-08 14:38:00,
2013-08-08 10:43:00,77.0,72.2,29.93,SSW,196,0.0,0.0,85,0.00,,,0.00,VWS V14.01,2013-08-08 14:43:00,
2013-08-08 10:45:00,77.0,72.2,29.93,SSW,196,0.0,0.0,85,0.00,,BKN037,0.00,VWS V14.01,2013-08-08 14:45:00,
2013-08-08 10:48:00,77.2,72.3,29.93,SSW,196,0.0,0.0,85,0.00,,,0.00,VWS V14.01,2013-08-08 14:48:00,
2013-08-08 10:53:00,77.2,72.3,29.93,SSW,196,0.0,0.0,85,0.00,,,0.00,VWS V14.01,2013-08-08 14:53:00,
2013-08-08 10:58:00,77.4,72.2,29.93,SSE,161,0.0,0.0,84,0.00,,,0.00,VWS V14.01,2013-08-08 14:58:00,
2013-08-08 11:00:00,77.4,72.2,29.93,SSE,162,0.0,0.0,84,0.00,,BKN037,0.00,VWS V14.01,2013-08-08 15:00:00,
2013-08-08 11:03:00,77.6,72.4,29.93,SSE,162,0.0,0.0,84,0.00,,,0.00,VWS V14.01,2013-08-08 15:03:00,
2013-08-08 11:08:00,77.6,72.4,29.93,SSE,167,0.0,0.0,84,0.00,,,0.00,VWS V14.01,2013-08-08 15:08:00,
2013-08-08 11:13:00,77.4,72.2,29.93,SW,232,0.0,3.0,84,0.00,,,0.00,VWS V14.01,2013-08-08 15:13:00,
2013-08-08 11:15:00,77.4,72.2,29.94,SW,227,4.0,6.0,84,0.00,,BKN037,0.00,VWS V14.01,2013-08-08 15:15:00,
2013-08-08 11:18:00,77.2,72.0,29.94,SW,222,0.0,6.0,84,0.00,,,0.00,VWS V14.01,2013-08-08 15:18:00,
2013-08-08 11:23:00,77.2,72.0,29.94,SW,222,0.0,5.0,84,0.00,,,0.00,VWS V14.01,2013-08-08 15:23:00,
2013-08-08 11:28:00,77.2,72.3,29.94,SW,222,0.0,0.0,85,0.00,,,0.00,VWS V14.01,2013-08-08 15:28:00,
2013-08-08 11:30:00,77.4,72.9,29.94,SW,222,0.0,0.0,86,0.00,,BKN037,0.00,VWS V14.01,2013-08-08 15:30:00,
2013-08-08 11:33:00,77.7,72.8,29.94,SW,222,0.0,2.0,85,0.00,,,0.00,VWS V14.01,2013-08-08 15:33:00,
2013-08-08 11:38:00,77.9,72.7,29.94,SSW,212,0.0,2.0,84,0.00,,,0.00,VWS V14.01,2013-08-08 15:38:00,
2013-08-08 11:43:00,77.9,72.3,29.94,South,175,0.0,3.0,83,0.00,,,0.00,VWS V14.01,2013-08-08 15:43:00,
2013-08-08 11:45:00,78.1,72.5,29.94,South,175,0.0,3.0,83,0.00,,BKN037,0.00,VWS V14.01,2013-08-08 15:45:00,
2013-08-08 11:48:00,78.1,72.5,29.94,South,181,0.0,6.0,83,0.00,,,0.00,VWS V14.01,2013-08-08 15:48:00,
2013-08-08 11:53:00,77.9,72.0,29.94,SSW,209,0.0,6.0,82,0.00,,,0.00,VWS V14.01,2013-08-08 15:53:00,
2013-08-08 11:58:00,77.9,72.3,29.94,SSW,209,0.0,5.0,83,0.00,,,0.00,VWS V14.01,2013-08-08 15:58:00,
2013-08-08 12:00:00,77.9,72.3,29.94,SSW,209,0.0,4.0,83,0.00,,BKN037,0.00,VWS V14.01,2013-08-08 16:00:00,
2013-08-08 12:03:00,77.9,72.3,29.94,SSW,209,0.0,0.0,83,0.00,,,0.00,VWS V14.01,2013-08-08 16:03:00,
2013-08-08 12:08:00,77.7,72.1,29.94,SSW,209,0.0,1.0,83,0.00,,,0.00,VWS V14.01,2013-08-08 16:08:00,
2013-08-08 12:13:00,77.6,72.0,29.94,SSW,209,5.0,6.0,83,0.00,,,0.00,VWS V14.01,2013-08-08 16:13:00,
2013-08-08 12:15:00,77.6,72.0,29.94,SSW,209,0.0,6.0,83,0.00,,BKN037,0.00,VWS V14.01,2013-08-08 16:15:00,
2013-08-08 12:18:00,77.6,72.4,29.94,SSW,209,0.0,6.0,84,0.00,,,0.00,VWS V14.01,2013-08-08 16:18:00,
2013-08-08 12:23:00,77.6,72.4,29.94,SSW,209,0.0,0.0,84,0.00,,,0.00,VWS V14.01,2013-08-08 16:23:00,
2013-08-08 12:28:00,77.7,72.5,29.94,SSW,209,0.0,4.0,84,0.00,,,0.00,VWS V14.01,2013-08-08 16:28:00,
2013-08-08 12:30:00,77.7,72.5,29.93,SW,217,0.0,4.0,84,0.00,,BKN037,0.00,VWS V14.01,2013-08-08 16:30:00,
2013-08-08 12:33:00,77.7,72.1,29.93,SW,217,0.0,3.0,83,0.00,,,0.00,VWS V14.01,2013-08-08 16:33:00,
2013-08-08 12:38:00,77.7,72.5,29.93,SW,216,0.0,3.0,84,0.00,,,0.00,VWS V14.01,2013-08-08 16:38:00,
2013-08-08 12:43:00,77.6,72.4,29.93,SSW,210,0.0,7.0,84,0.00,,,0.00,VWS V14.01,2013-08-08 16:43:00,
2013-08-08 12:45:00,77.6,72.4,29.93,SSW,210,0.0,7.0,84,0.00,,BKN037,0.00,VWS V14.01,2013-08-08 16:45:00,
2013-08-08 12:48:00,77.6,72.4,29.93,SSW,213,0.0,6.0,84,0.00,,,0.00,VWS V14.01,2013-08-08 16:48:00,
2013-08-08 12:53:00,77.6,72.4,29.93,SSW,208,0.0,6.0,84,0.00,,,0.00,VWS V14.01,2013-08-08 16:53:00,
2013-08-08 12:58:00,77.4,72.2,29.93,South,191,0.0,5.0,84,0.00,,,0.00,VWS V14.01,2013-08-08 16:58:00,
2013-08-08 13:00:00,77.4,72.2,29.92,South,191,0.0,5.0,84,0.00,,BKN037,0.00,VWS V14.01,2013-08-08 17:00:00,
2013-08-08 13:03:00,77.4,72.2,29.92,South,191,1.0,3.0,84,0.00,,,0.00,VWS V14.01,2013-08-08 17:03:00,
2013-08-08 13:08:00,77.4,72.2,29.92,South,191,0.0,3.0,84,0.00,,,0.00,VWS V14.01,2013-08-08 17:08:00,
2013-08-08 13:13:00,77.6,72.4,29.92,South,191,0.0,1.0,84,0.00,,,0.00,VWS V14.01,2013-08-08 17:13:00,
2013-08-08 13:15:00,77.6,72.4,29.92,SW,220,4.0,5.0,84,0.00,,BKN037,0.00,VWS V14.01,2013-08-08 17:15:00,
2013-08-08 13:18:00,77.4,72.2,29.92,SW,220,0.0,5.0,84,0.00,,,0.00,VWS V14.01,2013-08-08 17:18:00,
2013-08-08 13:23:00,77.6,72.4,29.92,SW,220,0.0,5.0,84,0.00,,,0.00,VWS V14.01,2013-08-08 17:23:00,
2013-08-08 13:28:00,77.7,72.1,29.92,SW,220,0.0,5.0,83,0.00,,,0.00,VWS V14.01,2013-08-08 17:28:00,
2013-08-08 13:30:00,77.9,72.3,29.92,SW,220,0.0,5.0,83,0.00,,BKN037,0.00,VWS V14.01,2013-08-08 17:30:00,
2013-08-08 13:33:00,78.1,72.2,29.92,SW,220,2.0,6.0,82,0.00,,,0.00,VWS V14.01,2013-08-08 17:33:00,
2013-08-08 13:38:00,78.6,72.7,29.92,SW,220,0.0,6.0,82,0.00,,,0.00,VWS V14.01,2013-08-08 17:38:00,
2013-08-08 13:43:00,78.8,72.5,29.92,SW,220,0.0,3.0,81,0.00,,,0.00,VWS V14.01,2013-08-08 17:43:00,
2013-08-08 13:45:00,79.0,72.7,29.92,SW,224,3.0,3.0,81,0.00,,BKN037,0.00,VWS V14.01,2013-08-08 17:45:00,
2013-08-08 13:48:00,79.0,72.7,29.92,SW,232,0.0,3.0,81,0.00,,,0.00,VWS V14.01,2013-08-08 17:48:00,
2013-08-08 13:53:00,79.2,72.9,29.92,SW,226,4.0,6.0,81,0.00,,,0.00,VWS V14.01,2013-08-08 17:53:00,
2013-08-08 13:58:00,79.2,72.1,29.92,SW,230,0.0,6.0,79,0.00,,,0.00,VWS V14.01,2013-08-08 17:58:00,
2013-08-08 14:00:00,79.2,72.5,29.92,SW,230,0.0,6.0,80,0.00,,BKN037,0.00,VWS V14.01,2013-08-08 18:00:00,
2013-08-08 14:03:00,79.4,72.7,29.92,SW,227,0.0,5.0,80,0.00,,,0.00,VWS V14.01,2013-08-08 18:03:00,
2013-08-08 14:08:00,79.8,72.7,29.92,WSW,244,0.0,5.0,79,0.00,,,0.00,VWS V14.01,2013-08-08 18:08:00,
2013-08-08 14:13:00,80.1,73.0,29.92,SW,219,0.0,5.0,79,0.00,,,0.00,VWS V14.01,2013-08-08 18:13:00,
2013-08-08 14:15:00,80.3,73.2,29.91,SW,219,0.0,5.0,79,0.00,,BKN037,0.00,VWS V14.01,2013-08-08 18:15:00,
2013-08-08 14:18:00,80.9,74.5,29.91,SW,219,0.0,5.0,81,0.00,,,0.00,VWS V14.01,2013-08-08 18:18:00,
2013-08-08 14:23:00,81.1,72.8,29.91,SW,217,0.0,1.0,76,0.00,,,0.00,VWS V14.01,2013-08-08 18:23:00,
2013-08-08 14:28:00,81.8,73.1,29.91,SW,216,0.0,1.0,75,0.00,,,0.00,VWS V14.01,2013-08-08 18:28:00,
2013-08-08 14:30:00,82.0,73.3,29.90,SW,216,0.0,0.0,75,0.00,,BKN037,0.00,VWS V14.01,2013-08-08 18:30:00,
2013-08-08 14:33:00,82.0,73.3,29.90,SW,216,0.0,0.0,75,0.00,,,0.00,VWS V14.01,2013-08-08 18:33:00,
2013-08-08 14:38:00,82.0,73.3,29.90,SSW,206,0.0,1.0,75,0.00,,,0.00,VWS V14.01,2013-08-08 18:38:00,
2013-08-08 14:43:00,82.4,73.3,29.90,SSW,205,0.0,0.0,74,0.00,,,0.00,VWS V14.01,2013-08-08 18:43:00,
2013-08-08 14:45:00,82.4,72.9,29.90,SSW,205,0.0,0.0,73,0.00,,BKN037,0.00,VWS V14.01,2013-08-08 18:45:00,
2013-08-08 14:48:00,82.2,73.5,29.90,SSW,205,0.0,0.0,75,0.00,,,0.00,VWS V14.01,2013-08-08 18:48:00,
2013-08-08 14:53:00,82.6,73.5,29.90,South,186,0.0,2.0,74,0.00,,,0.00,VWS V14.01,2013-08-08 18:53:00,
2013-08-08 14:58:00,83.2,73.7,29.90,South,185,0.0,0.0,73,0.00,,,0.00,VWS V14.01,2013-08-08 18:58:00,
2013-08-08 15:00:00,83.2,73.2,29.90,ESE,107,0.0,0.0,72,0.00,,BKN037,0.00,VWS V14.01,2013-08-08 19:00:00,
2013-08-08 15:03:00,83.6,73.6,29.90,ESE,106,0.0,0.0,72,0.00,,,0.00,VWS V14.01,2013-08-08 19:03:00,
2013-08-08 15:08:00,83.6,74.0,29.90,ESE,107,0.0,0.0,73,0.00,,,0.00,VWS V14.01,2013-08-08 19:08:00,
2013-08-08 15:13:00,83.8,73.4,29.90,SW,216,2.0,3.0,71,0.00,,,0.00,VWS V14.01,2013-08-08 19:13:00,
2013-08-08 15:15:00,83.8,72.6,29.88,WSW,237,0.0,6.0,69,0.00,,BKN037,0.00,VWS V14.01,2013-08-08 19:15:00,
2013-08-08 15:18:00,84.0,72.7,29.88,SW,226,0.0,6.0,69,0.00,,,0.00,VWS V14.01,2013-08-08 19:18:00,
2013-08-08 15:23:00,84.3,73.5,29.88,SW,226,0.0,8.0,70,0.00,,,0.00,VWS V14.01,2013-08-08 19:23:00,
2013-08-08 15:28:00,84.5,72.8,29.88,SSW,209,0.0,8.0,68,0.00,,,0.00,VWS V14.01,2013-08-08 19:28:00,
2013-08-08 15:30:00,84.5,73.2,29.88,SSW,209,0.0,8.0,69,0.00,,BKN037,0.00,VWS V14.01,2013-08-08 19:30:00,
2013-08-08 15:33:00,84.3,73.0,29.88,South,185,0.0,5.0,69,0.00,,,0.00,VWS V14.01,2013-08-08 19:33:00,
2013-08-08 15:38:00,84.3,73.5,29.88,South,178,0.0,1.0,70,0.00,,,0.00,VWS V14.01,2013-08-08 19:38:00,
2013-08-08 15:43:00,84.0,73.2,29.88,South,178,0.0,0.0,70,0.00,,,0.00,VWS V14.01,2013-08-08 19:43:00,
2013-08-08 15:45:00,84.0,73.6,29.88,South,178,0.0,0.0,71,0.00,,BKN037,0.00,VWS V14.01,2013-08-08 19:45:00,
2013-08-08 15:48:00,84.0,74.0,29.88,South,178,0.0,0.0,72,0.00,,,0.00,VWS V14.01,2013-08-08 19:48:00,
2013-08-08 15:54:00,84.0,73.2,29.88,SSW,192,0.0,2.0,70,0.00,,,0.00,VWS V14.01,2013-08-08 19:54:00,
2013-08-08 15:59:00,84.0,73.2,29.88,South,184,0.0,1.0,70,0.00,,,0.00,VWS V14.01,2013-08-08 19:59:00,
2013-08-08 16:00:00,84.0,73.2,29.88,South,182,0.0,1.0,70,0.00,,BKN037,0.00,VWS V14.01,2013-08-08 20:00:00,
2013-08-08 16:04:00,84.0,73.2,29.88,South,179,0.0,1.0,70,0.00,,FEW027,0.00,VWS V14.01,2013-08-08 20:04:00,
2013-08-08 16:09:00,83.8,73.8,29.88,South,184,0.0,3.0,72,0.00,,FEW027,0.00,VWS V14.01,2013-08-08 20:09:00,
2013-08-08 16:14:00,83.6,73.2,29.88,South,184,0.0,3.0,71,0.00,,FEW027,0.00,VWS V14.01,2013-08-08 20:14:00,
2013-08-08 16:15:00,83.6,73.2,29.88,South,184,0.0,3.0,71,0.00,,BKN037,0.00,VWS V14.01,2013-08-08 20:15:00,
2013-08-08 16:19:00,83.6,73.6,29.88,South,184,0.0,0.0,72,0.00,,FEW027,0.00,VWS V14.01,2013-08-08 20:19:00,
2013-08-08 16:24:00,83.6,73.2,29.88,South,184,0.0,0.0,71,0.00,,FEW027,0.00,VWS V14.01,2013-08-08 20:24:00,
2013-08-08 16:29:00,83.6,73.6,29.88,South,179,0.0,0.0,72,0.00,,FEW027,0.00,VWS V14.01,2013-08-08 20:29:00,
2013-08-08 16:30:00,83.6,73.6,29.87,South,179,0.0,0.0,72,0.00,,BKN037,0.00,VWS V14.01,2013-08-08 20:30:00,
2013-08-08 16:34:00,83.8,73.4,29.87,South,178,0.0,0.0,71,0.00,,FEW027,0.00,VWS V14.01,2013-08-08 20:34:00,
2013-08-08 16:39:00,83.8,74.2,29.87,South,179,0.0,0.0,73,0.00,,FEW027,0.00,VWS V14.01,2013-08-08 20:39:00,
2013-08-08 16:44:00,83.8,73.8,29.87,South,179,0.0,0.0,72,0.00,,FEW027,0.00,VWS V14.01,2013-08-08 20:44:00,
2013-08-08 16:45:00,83.8,73.4,29.87,South,182,0.0,1.0,71,0.00,,BKN037,0.00,VWS V14.01,2013-08-08 20:45:00,
2013-08-08 16:49:00,83.8,73.4,29.87,South,182,0.0,1.0,71,0.00,,FEW027,0.00,VWS V14.01,2013-08-08 20:49:00,
2013-08-08 16:54:00,83.2,73.2,29.87,South,169,0.0,1.0,72,0.00,,FEW027,0.00,VWS V14.01,2013-08-08 20:54:00,
2013-08-08 16:59:00,83.0,73.9,29.87,SSE,164,0.0,0.0,74,0.00,,FEW027,0.00,VWS V14.01,2013-08-08 20:59:00,
2013-08-08 17:00:00,82.8,73.7,29.87,SSE,164,0.0,0.0,74,0.00,,BKN037,0.00,VWS V14.01,2013-08-08 21:00:00,
2013-08-08 17:04:00,82.6,73.5,29.87,SSE,164,0.0,1.0,74,0.00,,FEW029,0.00,VWS V14.01,2013-08-08 21:04:00,
2013-08-08 17:09:00,82.4,73.3,29.87,SSE,164,0.0,1.0,74,0.00,,FEW029,0.00,VWS V14.01,2013-08-08 21:09:00,
2013-08-08 17:14:00,82.2,73.1,29.87,SSW,206,0.0,0.0,74,0.00,,FEW029,0.00,VWS V14.01,2013-08-08 21:14:00,
2013-08-08 17:15:00,82.2,73.1,29.87,SSW,206,0.0,0.0,74,0.00,,BKN037,0.00,VWS V14.01,2013-08-08 21:15:00,
2013-08-08 17:19:00,82.0,72.9,29.87,SSW,205,0.0,0.0,74,0.00,,FEW029,0.00,VWS V14.01,2013-08-08 21:19:00,
2013-08-08 17:24:00,81.8,73.1,29.87,SSW,205,0.0,0.0,75,0.00,,FEW029,0.00,VWS V14.01,2013-08-08 21:24:00,
2013-08-08 17:29:00,81.4,72.7,29.87,SSW,205,0.0,5.0,75,0.00,,FEW029,0.00,VWS V14.01,2013-08-08 21:29:00,
2013-08-08 17:30:00,81.4,72.7,29.87,SSW,205,0.0,5.0,75,0.00,,BKN037,0.00,VWS V14.01,2013-08-08 21:30:00,
2013-08-08 17:34:00,81.2,72.9,29.87,SSW,205,0.0,5.0,76,0.00,,FEW029,0.00,VWS V14.01,2013-08-08 21:34:00,
2013-08-08 17:39:00,81.1,72.8,29.87,SSW,205,0.0,1.0,76,0.00,,FEW029,0.00,VWS V14.01,2013-08-08 21:39:00,
2013-08-08 17:44:00,80.9,72.6,29.87,SSW,200,0.0,0.0,76,0.00,,FEW029,0.00,VWS V14.01,2013-08-08 21:44:00,
2013-08-08 17:45:00,80.9,72.6,29.87,SSW,200,0.0,0.0,76,0.00,,BKN037,0.00,VWS V14.01,2013-08-08 21:45:00,
2013-08-08 17:50:00,80.7,72.4,29.87,SW,215,3.0,4.0,76,0.00,,BKN100,0.00,VWS V14.01,2013-08-08 21:50:00,
2013-08-08 17:55:00,80.1,72.2,29.87,WSW,256,0.0,8.0,77,0.00,,BKN100,0.00,VWS V14.01,2013-08-08 21:55:00,
2013-08-08 18:00:00,79.4,71.9,29.89,WNW,298,0.0,7.0,78,0.00,,,0.00,VWS V14.01,2013-08-08 22:00:00,
2013-08-08 18:06:00,78.3,71.6,29.89,NNW,336,0.0,6.0,80,0.00,,,0.00,VWS V14.01,2013-08-08 22:06:00,
2013-08-08 18:11:00,77.4,71.5,29.89,NNW,328,0.0,6.0,82,0.00,,,0.00,VWS V14.01,2013-08-08 22:11:00,
2013-08-08 18:15:00,76.7,71.2,29.91,NNW,347,0.0,6.0,83,0.00,,BKN037,0.00,VWS V14.01,2013-08-08 22:15:00,
2013-08-08 18:16:00,76.7,71.2,29.91,WSW,248,6.0,6.0,83,0.00,, +RA,0.00,VWS V14.01,2013-08-08 22:16:00,
2013-08-08 18:21:00,75.6,70.8,29.91,NNW,335,0.0,6.0,85,0.00,, +RA,0.00,VWS V14.01,2013-08-08 22:21:00,
2013-08-08 18:26:00,74.9,70.8,29.91,WNW,296,2.0,5.0,87,0.01,, +RA,0.01,VWS V14.01,2013-08-08 22:26:00,
2013-08-08 18:30:00,74.6,70.8,29.92,NW,315,0.0,5.0,88,0.02,,BKN037,0.02,VWS V14.01,2013-08-08 22:30:00,
2013-08-08 18:31:00,74.4,70.6,29.92,NW,315,0.0,5.0,88,0.02,, +RA,0.02,VWS V14.01,2013-08-08 22:31:00,
2013-08-08 18:36:00,74.0,70.6,29.92,NW,315,0.0,3.0,89,0.04,, +RA,0.04,VWS V14.01,2013-08-08 22:36:00,
2013-08-08 18:41:00,73.9,70.8,29.92,NW,315,0.0,0.0,90,0.05,, +RA,0.05,VWS V14.01,2013-08-08 22:41:00,
2013-08-08 18:45:00,73.7,70.6,29.92,NW,315,0.0,0.0,90,0.07,,BKN037,0.07,VWS V14.01,2013-08-08 22:45:00,
2013-08-08 18:47:00,73.7,70.9,29.92,NW,315,0.0,0.0,91,0.08,, +RA,0.08,VWS V14.01,2013-08-08 22:47:00,
2013-08-08 18:52:00,73.5,70.7,29.92,West,272,0.0,1.0,91,0.10,, +RA,0.10,VWS V14.01,2013-08-08 22:52:00,
2013-08-08 18:57:00,73.3,70.5,29.92,West,272,0.0,0.0,91,0.12,, +RA,0.12,VWS V14.01,2013-08-08 22:57:00,
2013-08-08 19:00:00,73.2,70.4,29.91,West,272,0.0,0.0,91,0.12,,BKN037,0.12,VWS V14.01,2013-08-08 23:00:00,
2013-08-08 19:02:00,73.2,70.7,29.91,West,272,0.0,0.0,92,0.12,,-RA,0.12,VWS V14.01,2013-08-08 23:02:00,
2013-08-08 19:07:00,73.2,70.7,29.91,West,272,0.0,0.0,92,0.13,,-RA,0.13,VWS V14.01,2013-08-08 23:07:00,
2013-08-08 19:12:00,73.2,70.7,29.91,West,270,0.0,0.0,92,0.13,,-RA,0.13,VWS V14.01,2013-08-08 23:12:00,
2013-08-08 19:15:00,73.0,70.5,29.91,West,270,0.0,0.0,92,0.13,,BKN037,0.13,VWS V14.01,2013-08-08 23:15:00,
2013-08-08 19:17:00,73.0,70.5,29.91,West,270,0.0,0.0,92,0.13,,-RA,0.13,VWS V14.01,2013-08-08 23:17:00,
2013-08-08 19:22:00,72.8,70.7,29.91,West,270,0.0,0.0,93,0.13,,-RA,0.13,VWS V14.01,2013-08-08 23:22:00,
2013-08-08 19:27:00,72.8,70.7,29.91,West,270,0.0,0.0,93,0.13,,-RA,0.13,VWS V14.01,2013-08-08 23:27:00,
2013-08-08 19:30:00,72.7,70.6,29.89,West,270,0.0,0.0,93,0.13,,BKN037,0.13,VWS V14.01,2013-08-08 23:30:00,
2013-08-08 19:32:00,72.7,70.6,29.89,West,270,0.0,0.0,93,0.11,,-RA,0.13,VWS V14.01,2013-08-08 23:32:00,
2013-08-08 19:38:00,72.5,70.4,29.89,West,270,0.0,0.0,93,0.11,,-RA,0.13,VWS V14.01,2013-08-08 23:38:00,
2013-08-08 19:43:00,72.3,70.2,29.89,West,270,0.0,0.0,93,0.12,,-RA,0.14,VWS V14.01,2013-08-08 23:43:00,
2013-08-08 19:45:00,72.3,70.2,29.89,West,270,0.0,0.0,93,0.12,,BKN037,0.14,VWS V14.01,2013-08-08 23:45:00,
2013-08-08 19:48:00,72.3,70.2,29.89,West,270,0.0,0.0,93,0.07,,-RA,0.14,VWS V14.01,2013-08-08 23:48:00,
2013-08-08 19:53:00,72.3,70.2,29.89,West,270,0.0,0.0,93,0.07,,-RA,0.14,VWS V14.01,2013-08-08 23:53:00,
2013-08-08 19:58:00,72.3,70.2,29.89,West,270,0.0,0.0,93,0.07,,-RA,0.14,VWS V14.01,2013-08-08 23:58:00,
2013-08-08 20:00:00,72.3,70.2,29.88,West,270,0.0,0.0,93,0.07,,BKN037,0.14,VWS V14.01,2013-08-09 00:00:00,
2013-08-08 20:04:00,72.3,70.2,29.88,West,270,0.0,0.0,93,0.02,,SCT100,0.14,VWS V14.01,2013-08-09 00:04:00,
2013-08-08 20:09:00,72.3,70.2,29.88,West,270,0.0,0.0,93,0.02,,SCT100,0.14,VWS V14.01,2013-08-09 00:09:00,
2013-08-08 20:14:00,72.1,70.0,29.88,West,270,0.0,0.0,93,0.02,,SCT100,0.14,VWS V14.01,2013-08-09 00:14:00,
2013-08-08 20:15:00,72.1,70.0,29.88,West,270,0.0,0.0,93,0.02,,BKN037,0.14,VWS V14.01,2013-08-09 00:15:00,
2013-08-08 20:20:00,72.1,70.3,29.88,West,270,1.0,1.0,94,0.01,,SCT100,0.14,VWS V14.01,2013-08-09 00:20:00,
2013-08-08 20:26:00,72.1,70.3,29.88,West,270,0.0,1.0,94,0.01,,SCT100,0.14,VWS V14.01,2013-08-09 00:26:00,
2013-08-08 20:30:00,72.0,70.2,29.88,West,270,0.0,0.0,94,0.01,,BKN037,0.14,VWS V14.01,2013-08-09 00:30:00,
2013-08-08 20:31:00,72.0,70.2,29.88,West,270,0.0,0.0,94,0.01,,SCT100,0.14,VWS V14.01,2013-08-09 00:31:00,
2013-08-08 20:36:00,72.0,70.2,29.88,West,268,0.0,0.0,94,0.01,,SCT100,0.14,VWS V14.01,2013-08-09 00:36:00,
2013-08-08 20:41:00,71.8,70.0,29.88,West,264,0.0,0.0,94,0.01,,SCT100,0.14,VWS V14.01,2013-08-09 00:41:00,
2013-08-08 20:45:00,71.8,70.0,29.88,West,264,0.0,0.0,94,0.01,,BKN037,0.14,VWS V14.01,2013-08-09 00:45:00,
2013-08-08 20:46:00,71.8,70.0,29.88,West,263,0.0,0.0,94,0.00,,SCT100,0.14,VWS V14.01,2013-08-09 00:46:00,
2013-08-08 20:51:00,71.6,69.8,29.88,West,263,0.0,0.0,94,0.00,,SCT100,0.14,VWS V14.01,2013-08-09 00:51:00,
2013-08-08 20:56:00,71.6,69.8,29.88,West,263,0.0,0.0,94,0.00,,SCT100,0.14,VWS V14.01,2013-08-09 00:56:00,
2013-08-08 21:00:00,71.5,69.7,29.88,West,263,0.0,0.0,94,0.00,,BKN037,0.14,VWS V14.01,2013-08-09 01:00:00,
2013-08-08 21:01:00,71.5,69.7,29.88,West,263,0.0,0.0,94,0.00,,SCT100,0.14,VWS V14.01,2013-08-09 01:01:00,
2013-08-08 21:06:00,71.3,69.5,29.88,West,263,0.0,0.0,94,0.00,,SCT100,0.14,VWS V14.01,2013-08-09 01:06:00,
2013-08-08 21:12:00,71.3,69.5,29.88,West,263,0.0,0.0,94,0.00,,SCT100,0.14,VWS V14.01,2013-08-09 01:12:00,
2013-08-08 21:15:00,71.3,69.5,29.88,West,263,0.0,0.0,94,0.00,,BKN037,0.14,VWS V14.01,2013-08-09 01:15:00,
2013-08-08 21:17:00,71.3,69.5,29.88,West,263,0.0,0.0,94,0.00,,SCT100,0.14,VWS V14.01,2013-08-09 01:17:00,
2013-08-08 21:22:00,71.1,69.6,29.88,West,263,0.0,1.0,95,0.00,,SCT100,0.14,VWS V14.01,2013-08-09 01:22:00,
2013-08-08 21:27:00,71.1,69.6,29.88,West,263,0.0,0.0,95,0.00,,SCT100,0.14,VWS V14.01,2013-08-09 01:27:00,
2013-08-08 21:30:00,71.1,69.6,29.89,West,263,0.0,0.0,95,0.00,,BKN037,0.14,VWS V14.01,2013-08-09 01:30:00,
2013-08-08 21:32:00,71.1,69.6,29.89,West,263,0.0,0.0,95,0.00,,SCT100,0.14,VWS V14.01,2013-08-09 01:32:00,
2013-08-08 21:37:00,71.1,69.6,29.89,West,278,0.0,1.0,95,0.00,,SCT100,0.14,VWS V14.01,2013-08-09 01:37:00,
2013-08-08 21:42:00,71.1,69.6,29.89,West,278,0.0,1.0,95,0.00,,SCT100,0.14,VWS V14.01,2013-08-09 01:42:00,
2013-08-08 21:45:00,71.1,69.6,29.89,West,278,0.0,0.0,95,0.00,,BKN037,0.14,VWS V14.01,2013-08-09 01:45:00,
2013-08-08 21:47:00,71.1,69.6,29.89,West,278,0.0,0.0,95,0.00,,SCT100,0.14,VWS V14.01,2013-08-09 01:47:00,
2013-08-08 21:52:00,71.1,69.6,29.89,West,278,0.0,0.0,95,0.00,,SCT100,0.14,VWS V14.01,2013-08-09 01:52:00,
2013-08-08 21:58:00,71.1,69.6,29.89,West,278,0.0,0.0,95,0.00,,SCT100,0.14,VWS V14.01,2013-08-09 01:58:00,
2013-08-08 22:00:00,71.1,69.6,29.89,West,278,0.0,0.0,95,0.00,,BKN037,0.14,VWS V14.01,2013-08-09 02:00:00,
2013-08-08 22:03:00,71.1,69.6,29.89,West,278,0.0,0.0,95,0.00,,CLR,0.14,VWS V14.01,2013-08-09 02:03:00,
2013-08-08 22:08:00,71.1,69.6,29.89,West,278,0.0,0.0,95,0.00,,CLR,0.14,VWS V14.01,2013-08-09 02:08:00,
2013-08-08 22:13:00,70.9,69.4,29.89,West,278,0.0,0.0,95,0.00,,CLR,0.14,VWS V14.01,2013-08-09 02:13:00,
2013-08-08 22:15:00,71.1,69.6,29.89,West,278,0.0,0.0,95,0.00,,BKN037,0.14,VWS V14.01,2013-08-09 02:15:00,
2013-08-08 22:19:00,71.1,69.6,29.89,West,278,0.0,0.0,95,0.00,,CLR,0.14,VWS V14.01,2013-08-09 02:19:00,
2013-08-08 22:24:00,71.1,69.6,29.89,West,278,0.0,2.0,95,0.00,,CLR,0.14,VWS V14.01,2013-08-09 02:24:00,
2013-08-08 22:29:00,71.1,69.6,29.90,West,278,0.0,0.0,95,0.00,,CLR,0.14,VWS V14.01,2013-08-09 02:29:00,
2013-08-08 22:30:00,71.1,69.6,29.90,West,278,0.0,0.0,95,0.00,,BKN037,0.14,VWS V14.01,2013-08-09 02:30:00,
2013-08-08 22:34:00,71.3,69.8,29.90,West,278,0.0,0.0,95,0.00,,CLR,0.14,VWS V14.01,2013-08-09 02:34:00,
2013-08-08 22:40:00,71.1,69.6,29.90,West,278,0.0,0.0,95,0.00,,CLR,0.14,VWS V14.01,2013-08-09 02:40:00,
2013-08-08 22:45:00,71.1,69.6,29.90,West,278,0.0,0.0,95,0.00,,CLR,0.14,VWS V14.01,2013-08-09 02:45:00,
2013-08-08 22:50:00,71.1,69.6,29.90,West,278,0.0,0.0,95,0.00,,CLR,0.14,VWS V14.01,2013-08-09 02:50:00,
2013-08-08 22:55:00,70.9,69.4,29.90,West,278,0.0,0.0,95,0.00,,CLR,0.14,VWS V14.01,2013-08-09 02:55:00,
2013-08-08 23:00:00,70.9,69.4,29.90,West,278,0.0,0.0,95,0.00,,,0.14,VWS V14.01,2013-08-09 03:00:00,
2013-08-08 23:06:00,70.9,69.4,29.90,West,278,0.0,0.0,95,0.00,,,0.14,VWS V14.01,2013-08-09 03:06:00,
2013-08-08 23:11:00,70.9,69.4,29.90,West,278,0.0,0.0,95,0.00,,,0.14,VWS V14.01,2013-08-09 03:11:00,
2013-08-08 23:15:00,71.1,69.6,29.90,West,278,0.0,0.0,95,0.00,,BKN037,0.14,VWS V14.01,2013-08-09 03:15:00,
2013-08-08 23:16:00,71.1,69.6,29.90,West,278,0.0,0.0,95,0.00,,,0.14,VWS V14.01,2013-08-09 03:16:00,
2013-08-08 23:21:00,71.1,69.6,29.90,West,278,0.0,0.0,95,0.00,,,0.14,VWS V14.01,2013-08-09 03:21:00,
2013-08-08 23:26:00,71.1,69.6,29.90,West,278,0.0,0.0,95,0.00,,,0.14,VWS V14.01,2013-08-09 03:26:00,
2013-08-08 23:30:00,71.3,69.8,29.90,West,278,0.0,0.0,95,0.00,,BKN037,0.14,VWS V14.01,2013-08-09 03:30:00,
2013-08-08 23:31:00,71.3,69.8,29.90,West,278,0.0,0.0,95,0.00,,,0.14,VWS V14.01,2013-08-09 03:31:00,
2013-08-08 23:37:00,71.1,69.6,29.90,West,278,0.0,0.0,95,0.00,,,0.14,VWS V14.01,2013-08-09 03:37:00,
2013-08-08 23:42:00,71.1,69.6,29.90,West,278,0.0,0.0,95,0.00,,,0.14,VWS V14.01,2013-08-09 03:42:00,
2013-08-08 23:45:00,71.1,69.6,29.90,West,278,0.0,0.0,95,0.00,,BKN037,0.14,VWS V14.01,2013-08-09 03:45:00,
2013-08-08 23:47:00,70.9,69.4,29.90,West,278,0.0,0.0,95,0.00,,,0.14,VWS V14.01,2013-08-09 03:47:00,
2013-08-08 23:52:00,70.9,69.4,29.90,West,278,0.0,0.0,95,0.00,,,0.14,VWS V14.01,2013-08-09 03:52:00,
2013-08-08 23:57:00,71.1,69.9,29.90,West,278,0.0,0.0,96,0.00,,,0.14,VWS V14.01,2013-08-09 03:57:00,